LROP Weather Reports


time (UTC)temp
C
wind
direction
speed
KPH
gust
KPH
rain 1hr
cm
rain 24hr
cm
rain mn
cm
humidity
%
barometer
mb
20260903183303 22 100 4.8 0.0 0.00 0.00 0.00 57 1016.0
20260903181802 22 100 8.0 0.0 0.00 0.00 0.00 57 1016.0
20260903180302 22 100 8.0 0.0 0.00 0.00 0.00 57 1016.0
20260903174802 22 90 9.7 0.0 0.00 0.00 0.00 50 1016.0
20260903173303 22 90 9.7 0.0 0.00 0.00 0.00 50 1016.0
20260903171803 26 80 9.7 0.0 0.00 0.00 0.00 39 1016.0
20260903170302 26 80 9.7 0.0 0.00 0.00 0.00 39 1016.0
20260903164802 27 90 9.7 0.0 0.00 0.00 0.00 39 1015.0
20260903163302 27 90 9.7 0.0 0.00 0.00 0.00 39 1015.0
20260903161802 27 100 9.7 0.0 0.00 0.00 0.00 42 1015.0
20260903160303 27 100 9.7 0.0 0.00 0.00 0.00 42 1015.0
20260903154803 28 80 8.0 0.0 0.00 0.00 0.00 31 1015.0
20260903153303 28 80 8.0 0.0 0.00 0.00 0.00 31 1015.0
20260903151803 28 50 12.9 0.0 0.00 0.00 0.00 33 1015.0
20260903150303 28 50 12.9 0.0 0.00 0.00 0.00 33 1015.0
20260903144802 30 120 9.7 0.0 0.00 0.00 0.00 33 1015.0
20260903143303 30 120 9.7 0.0 0.00 0.00 0.00 33 1015.0
20260903141803 28 1.6 0.0 0.00 0.00 0.00 33 1016.0
20260903140302 28 1.6 0.0 0.00 0.00 0.00 33 1016.0
20260903134802 30 4.8 0.0 0.00 0.00 0.00 31 1016.0
20260903133301 30 4.8 0.0 0.00 0.00 0.00 31 1016.0
20260903131802 28 4.8 0.0 0.00 0.00 0.00 33 1016.0
20260903130303 28 4.8 0.0 0.00 0.00 0.00 33 1016.0
20260903124802 28 50 12.9 0.0 0.00 0.00 0.00 35 1016.0
20260903123313 28 50 12.9 0.0 0.00 0.00 0.00 35 1016.0
20260903121802 30 100 14.5 0.0 0.00 0.00 0.00 35 1016.0
20260903120303 30 100 14.5 0.0 0.00 0.00 0.00 35 1016.0
20260903114803 27 50 16.1 0.0 0.00 0.00 0.00 40 1017.0
20260903113302 27 50 16.1 0.0 0.00 0.00 0.00 40 1017.0
20260903111803 28 60 17.7 0.0 0.00 0.00 0.00 43 1017.0
20260903110302 28 60 17.7 0.0 0.00 0.00 0.00 43 1017.0
20260903104802 28 70 16.1 0.0 0.00 0.00 0.00 45 1017.0
20260903103302 28 70 16.1 0.0 0.00 0.00 0.00 45 1017.0
20260903101802 27 50 16.1 0.0 0.00 0.00 0.00 48 1017.0
20260903100303 27 50 16.1 0.0 0.00 0.00 0.00 48 1017.0
20260903094802 27 70 20.9 0.0 0.00 0.00 0.00 48 1018.0
20260903093302 27 70 20.9 0.0 0.00 0.00 0.00 48 1018.0
20260903091819 27 80 20.9 0.0 0.00 0.00 0.00 51 1018.0
20260903090318 27 80 20.9 0.0 0.00 0.00 0.00 51 1018.0
20260903084802 26 80 22.5 0.0 0.00 0.00 0.00 54 1018.0
20260903083302 26 80 22.5 0.0 0.00 0.00 0.00 54 1018.0
20260903081802 26 70 22.5 0.0 0.00 0.00 0.00 58 1018.0
20260903080302 26 70 22.5 0.0 0.00 0.00 0.00 58 1018.0
20260903074803 25 70 24.1 0.0 0.00 0.00 0.00 57 1018.0
20260903073302 25 70 24.1 0.0 0.00 0.00 0.00 57 1018.0
20260903071802 23 70 22.5 0.0 0.00 0.00 0.00 65 1018.0
20260903070302 23 70 22.5 0.0 0.00 0.00 0.00 65 1018.0
20260903064802 22 60 17.7 0.0 0.00 0.00 0.00 69 1018.0
20260903063302 22 60 17.7 0.0 0.00 0.00 0.00 69 1018.0
20260903061802 22 50 14.5 0.0 0.00 0.00 0.00 73 1018.0
20260903060306 22 50 14.5 0.0 0.00 0.00 0.00 73 1018.0
20260903054807 20 30 12.9 0.0 0.00 0.00 0.00 83 1018.0
20260903053302 20 30 12.9 0.0 0.00 0.00 0.00 83 1018.0
20260903051802 20 60 12.9 0.0 0.00 0.00 0.00 83 1018.0
20260903050303 20 60 12.9 0.0 0.00 0.00 0.00 83 1018.0
20260903044802 18 60 14.5 0.0 0.00 0.00 0.00 88 1017.0
20260903043302 18 60 14.5 0.0 0.00 0.00 0.00 88 1017.0
20260903041801 18 30 14.5 0.0 0.00 0.00 0.00 88 1017.0
20260903040302 18 30 14.5 0.0 0.00 0.00 0.00 88 1017.0
20260903034802 20 50 14.5 0.0 0.00 0.00 0.00 83 1017.0
20260903033302 20 50 14.5 0.0 0.00 0.00 0.00 83 1017.0
20260903031802 20 20 14.5 0.0 0.00 0.00 0.00 83 1017.0
20260903030408 20 20 12.9 0.0 0.00 0.00 0.00 83 1017.0
20260903024908 20 20 12.9 0.0 0.00 0.00 0.00 83 1017.0
20260903023350 20 20 12.9 0.0 0.00 0.00 0.00 83 1017.0
20260903021801 20 20 12.9 0.0 0.00 0.00 0.00 83 1017.0
20260903020415 21 40 9.7 0.0 0.00 0.00 0.00 73 1017.0
20260903014803 21 40 9.7 0.0 0.00 0.00 0.00 73 1017.0
20260903013301 21 40 9.7 0.0 0.00 0.00 0.00 73 1017.0
20260903011802 21 60 11.3 0.0 0.00 0.00 0.00 73 1017.0
20260903010302 21 60 11.3 0.0 0.00 0.00 0.00 73 1017.0
20260903004802 22 30 11.3 0.0 0.00 0.00 0.00 69 1017.0
20260903003302 22 30 11.3 0.0 0.00 0.00 0.00 69 1017.0
20260903001802 22 30 14.5 0.0 0.00 0.00 0.00 65 1017.0
20260903000303 22 30 14.5 0.0 0.00 0.00 0.00 65 1017.0
20260902234802 21 50 9.7 0.0 0.00 0.00 0.00 73 1017.0
20260902233302 21 50 12.9 0.0 0.00 0.00 0.00 73 1017.0
20260902231802 21 30 22.5 0.0 0.00 0.00 0.00 73 1018.0
20260902230301 21 30 22.5 0.0 0.00 0.00 0.00 73 1018.0
20260902224802 21 10 16.1 0.0 0.00 0.00 0.00 73 1018.0
20260902223302 21 10 16.1 0.0 0.00 0.00 0.00 73 1018.0
20260902221802 21 360 14.5 0.0 0.00 0.00 0.00 73 1018.0
20260902220302 21 360 14.5 0.0 0.00 0.00 0.00 73 1018.0
20260902214802 21 10 8.0 0.0 0.00 0.00 0.00 73 1018.0
20260902213301 21 10 8.0 0.0 0.00 0.00 0.00 73 1018.0
20260902211802 21 40 9.7 0.0 0.00 0.00 0.00 73 1018.0
20260902210302 21 40 9.7 0.0 0.00 0.00 0.00 73 1018.0
20260902204801 21 50 8.0 0.0 0.00 0.00 0.00 73 1017.0
20260902203302 21 50 8.0 0.0 0.00 0.00 0.00 73 1017.0
20260902201802 22 30 11.3 0.0 0.00 0.00 0.00 65 1017.0
20260902200317 22 30 11.3 0.0 0.00 0.00 0.00 65 1017.0
20260902194802 22 20 12.9 0.0 0.00 0.00 0.00 65 1018.0
20260902193302 22 20 12.9 0.0 0.00 0.00 0.00 65 1018.0
20260902191802 22 20 12.9 0.0 0.00 0.00 0.00 65 1017.0
20260902190302 22 20 12.9 0.0 0.00 0.00 0.00 65 1017.0
20260902184802 22 10 14.5 0.0 0.00 0.00 0.00 61 1017.0